Tracking 30995 objects as of 5-Jul-2025
HD Live streaming from Space Station
objects crossing your sky now

CZ-2C R/B

Track CZ-2C R/B now!
10-day predictions


NORAD ID: 49030
Int'l Code: 2021-065E
Perigee: 380.1 km
Apogee: 429.2 km
Inclination: 35.1 °
Period: 92.5 minutes
Semi major axis: 6775 km
RCS: Unknown
Launch date: July 19, 2021
Source: People's Republic of China (PRC)
Launch site: Xichang Space Center, China (XSC)

Note: This is a ROCKET BODY
Your satellite tracking list
Your tracking list is empty




NASA's NSSDC Master Catalog

Two Line Element Set (TLE):
1 49030U 21065E   25186.24438323  .00032252  00000-0  42494-3 0  9991
2 49030  35.1252 166.4945 0036270 134.9903 225.3773 15.56589846220996
Source of the keplerian elements: AFSPC